Preview of NWS' New Version of Forecast
This preview is not operational and should not be used for support decisions.

Regional Weather Roundup (RWR)

Issued by Philadelphia/Mt Holly (PHI)

                            
000
ASUS41 KPHI 221912
RWRPHI

REGIONAL WEATHER ROUNDUP
NATIONAL WEATHER SERVICE MOUNT HOLLY NJ
300 PM EDT FRI MAR 22 2019

NOTE:  "FAIR" INDICATES FEW OR NO CLOUDS BELOW 12,000 FEET WITH NO
SIGNIFICANT WEATHER AND/OR OBSTRUCTIONS TO VISIBILITY.

 * = STATION DOES NOT REPORT PRECIPITATION (E.G. RAIN, SNOW, ETC.) 
        OR FOG.

NJZ015>026-222000-
SOUTHERN NEW JERSEY
  
CITY           SKY/WX    TMP DP  RH WIND       PRES   REMARKS
POMONA         CLOUDY    48  32  53 W29G40    29.48S                  
WILDWOOD*      CLOUDY    49  35  58 W18G26    29.54F                  
MILLVILLE      CLOUDY    49  30  48 NW29G37   29.51F                  
WRIGHTSTOWN    CLOUDY    47  29  50 W21G31    29.43S                  
MOUNT HOLLY    CLOUDY    48  29  47 NW15G32   29.48S                  
TRENTON        CLOUDY    47  29  49 NW20G32   29.44S                  

$$
NJZ001>014-222000-
NORTHERN NEW JERSEY
  
CITY           SKY/WX    TMP DP  RH WIND       PRES   REMARKS
SUSSEX         PTSUNNY   47  33  58 MISG      29.37F                  
ANDOVER*         N/A     46  29  51 W10G25    29.40F                  
MORRISTOWN     PTSUNNY   46  34  61 NW15G30   29.40F                  
NEWARK         PTSUNNY   49  31  49 W25G37    29.38S                  
TETERBORO      FAIR      46  33  60 NW17G28   29.36F                  
CALDWELL       PTSUNNY   47  31  53 NW17G28   29.39F                  
SOMERVILLE     CLOUDY    47  30  51 NW20G35   29.41S                  
ALLAIRE*       CLOUDY    46  31  55 W25G36    29.41S                  
TOMS RIVER*    CLOUDY    49  32  52 NW18G32   29.44F                  

$$
PAZ043-044-047-054-055-060>062-066>071-222000-
EASTERN PENNSYLVANIA
  
CITY           SKY/WX    TMP DP  RH WIND       PRES   REMARKS
PHILADELPHIA   PTSUNNY   49  29  46 W17G29    29.50F                  
NORTH PHILA    CLOUDY    50  29  44 NW25G36   29.48S                  
BLUE BELL*     PTSUNNY   45  30  57 NW12G22   29.49S                  
DOYLESTOWN     PTSUNNY   47  29  49 NW18G32   29.44F                  
QUAKERTOWN*    PTSUNNY   46  30  53 W13G29    29.46                   
PERKASIE*      CLOUDY    46  28  49 NW23G32   29.46F                  
POTTSTOWN      PTSUNNY   46  31  55 W17G25    29.50F                  
LANCASTER      PTSUNNY   49  32  52 W18       29.52F                  
COATESVILLE    PTSUNNY   46  32  57 W24       29.52F                  
READING        LGT RAIN  48  32  53 W23G31    29.49F                  
ALLENTOWN      PTSUNNY   49  30  48 W21G28    29.46F                  
MOUNT POCONO   PTSUNNY   36  29  75 W22G30    29.38F WCI  25          
HAZLETON       CLOUDY    41  28  60 W8G17     29.47F                  
LEHIGHTON      CLOUDY    45  30  57 W9G21     29.48F                  
WILKES BARRE   CLOUDY    43  28  55 W18G26    29.44F                  

$$
DEZALL-MDZ008-012-015-019-020-222000-
DELAWARE AND EASTERN MARYLAND
  
CITY           SKY/WX    TMP DP  RH WIND       PRES   REMARKS
WILMINGTON     PTSUNNY   48  30  49 NW22G38   29.54S                  
DOVER          CLOUDY    50  31  48 W22G33    29.54F                  
GEORGETOWN     PTSUNNY   53  31  42 W13G35    29.56F                  
EASTON         MOSUNNY   52  32  46 W17G31    29.63F                  
ABERDEEN       PTSUNNY   48  34  57 W18G35    29.56F                  
PATUXENT       PTSUNNY   56  32  40 W18G28    29.61F                  
OCEAN CITY     CLOUDY    51  32  48 W18G26    29.57F                  
WALLOPS ISLAND FAIR      56  33  42 W21G28    29.59F                  
CAMBRIDGE      SUNNY     52  32  46 NW16G30   29.60S                  
SALISBURY      FAIR      53  35  50 NW21G30   29.58F                  

$$
PAZ001-021-NYZ056-072-MDZ011-DCZ001-222000-
OTHER NEARBY LOCATIONS
  
CITY           SKY/WX    TMP DP  RH WIND       PRES   REMARKS
HARRISBURG     LGT RAIN  47  31  53 W22G33    29.54F                  
STATE COLLEGE  PTSUNNY   36  32  87 W10G22    29.56F WCI  28          
WILLIAMSPORT   CLOUDY    48  31  51 NW13      29.50F                  
BINGHAMTON     CLOUDY    36  30  79 NW14G26   29.42F WCI  27          
NEW YORK CITY  PTSUNNY   46  32  58 NW14G26   29.40R                  
BALTIMORE      PTSUNNY   50  31  48 W16       29.58F                  
WASHINGTON DC  PTSUNNY   53  31  42 NW8       29.62F                  

$$